Starlink 6304

operational
NORAD ID: 56778 Int'l Des: 2023-078 Owner: SPXS Country: US Constellation: starlink
LEOCIRCULAR

Starlink 6304について

説明を読み込み中...

リアルタイム位置

3D地球を読み込み中...

次回通過

高度履歴

Altitude vs Time

uPlot chart will show altitude changes over time

軌道要素

1 56778U 23078M 25352.60304038 .00000197 00000-0 24297-4 0 9999
2 56778 69.9988 169.0588 0002021 268.4061 91.6866 14.98331730141026
Epoch: Dec 18, 2025 • Age: 12 hours

現在のステータス

高度 584.8 km
速度 7.57 km/s
衛星直下点 69.10°N, 120.5°E
打ち上げ日 May 31, 2023
運用期間 2.5 years
タイプ internet

技術仕様

分類 Payload
質量 305.00 kg
乾燥質量 290.00 kg
総質量 305.00 kg
長さ 0.20 m
直径 2.80 m
スパン 9.00 m
形状 Box + pan
製造者 SPXS
バスタイプ Starlink
フェーズステータス In Orbit
所有者/国 SPXS/US

大規模コンステレーション

Loading constellations...